Location: Stockholm
(59.3330°N, 18.0500°E)
Time: 03:33:14
(UTC+02:00)

NOAA 18 - Pass Details

Date: 02 April 2023
Orbit: 838 x 860 km, 98.9° (Epoch: 31 May)

Event Time Altitude Azimuth Distance (km) Brightness Sun altitude
Exits shadow 21:12:46 17° 122° (ESE) 2,023 6.5 -12.6°
Maximum altitude 21:16:39 44° 58° (ENE) 1,175 5.8 -13.0°
Drops below altitude 10° 21:21:55 10° 348° (NNW) 2,512 8.4 -13.6°
Sets 21:24:23 0° 342° (NNW) 3,450 9.3 -13.8°
